Flag for U.S.A. Weather past 2 weeks in Louisville, Kentucky, U.S.A.

Now
35 °F

Overcast.


Feels Like: 29 °F
Forecast: 32 / 39 °F
Wind: 7 mph from West

Location: Standiford Field

Current Time: Dec 17, 2014 at 2:56:44 PM

Latest Report: Dec 17, 2014 at 1:56 PM


Visibility: 9 mi

Pressure: 30.26 "Hg

Humidity: 67%

Dew point: 25 °F

Location of LouisvilleLocation

Historic Weather in Louisville — Graph

°F

Louisville temperature yesterday

Maximum temperature yesterday: 56 °F (at 1:56 AM)
Minimum temperature yesterday: 37 °F (at 11:56 PM)
Average temperature yesterday: 46 °F

Past Weeks' High & Low Weather Summary

 TemperatureHumidityPressure
High60 °F (Dec 6, 12:56 AM)97% (Dec 2, 6:56 PM)30.58 "Hg (Dec 2, 6:56 PM)
Low26 °F (Dec 12, 7:56 AM)47% (Dec 11, 2:56 PM)29.71 "Hg (Dec 16, 3:56 AM)
Average42 °F77%30.23 "Hg
* Reported Dec 2 12:56 PM — Dec 17 12:56 PM, Louisville, Weather by CustomWeather, © 2014

Note: Actual official high and low records may vary slightly from our data, if they occured in-between our weather recording intervals... More about our weather records

Advertising

Louisville weather history for previous 24 hours

 ConditionsComfort  
Time TempWeatherWind HumidityBarometerVisibility
12:56 PM
Dec 17
34 °FOvercast.8 mph70%30.27 "Hg9 mi
11:56 AM34 °FOvercast.6 mph73%30.30 "Hg9 mi
10:56 AM34 °FOvercast.7 mph73%30.32 "Hg9 mi
9:56 AM34 °FOvercast.9 mph73%30.32 "Hg10 mi
8:56 AM33 °FOvercast.8 mph75%30.29 "Hg10 mi
7:56 AM33 °FOvercast.12 mph72%30.28 "Hg10 mi
6:56 AM34 °FOvercast.14 mph76%30.27 "Hg10 mi
5:56 AM34 °FOvercast.12 mph76%30.26 "Hg10 mi
4:56 AM34 °FOvercast.14 mph79%30.24 "Hg10 mi
3:56 AM34 °FOvercast.12 mph79%30.24 "Hg10 mi
2:56 AM35 °FOvercast.14 mph82%30.23 "Hg10 mi
1:56 AM36 °FOvercast.12 mph79%30.21 "Hg10 mi
12:56 AM37 °FOvercast.15 mph79%30.21 "Hg10 mi
11:56 PM
Dec 16
37 °FDrizzle. Overcast.13 mph86%30.20 "Hg7 mi
10:56 PM38 °FOvercast.15 mph83%30.19 "Hg8 mi
9:56 PM38 °FLow clouds.15 mph86%30.17 "Hg10 mi
8:56 PM40 °FOvercast.12 mph83%30.16 "Hg10 mi
7:56 PM40 °FOvercast.13 mph86%30.15 "Hg10 mi
6:56 PM41 °FOvercast.15 mph82%30.12 "Hg10 mi
5:56 PM42 °FDrizzle. Fog.12 mph85%30.10 "Hg6 mi
4:56 PM43 °FDrizzle. Mostly cloudy.15 mph86%30.06 "Hg7 mi
3:56 PM43 °FOvercast.17 mph82%30.02 "Hg7 mi
2:56 PM44 °FOvercast.18 mph79%29.99 "Hg10 mi
Weather by CustomWeather, © 2014

See weather overviewHow to use our weather pages